FW5426 Weather Reports


Display with metric or nautical units.
time (UTC)temp
F
wind
direction
speed
MPH
gust
MPH
rain 1hr
in
rain 24hr
in
rain mn
in
humidity
%
barometer
mb
20260903053135 88 319 4.0 10.0 0.00 0.00 0.00 29 1017.9
20260903052632 88 296 3.0 10.0 0.00 0.00 0.00 29 1017.9
20260903052352 87 302 1.0 6.0 0.00 0.00 0.00 30 1018.0
20260903051631 87 320 0.0 4.0 0.00 0.00 0.00 30 1018.0
20260903051132 87 168 0.0 2.0 0.00 0.00 0.00 30 1018.0
20260903050632 87 168 1.0 4.0 0.00 0.00 0.00 29 1017.9
20260903050132 87 176 1.0 4.0 0.00 0.00 0.00 29 1018.1
20260903045630 87 75 0.0 0.0 0.00 0.00 0.00 29 1018.1
20260903045129 88 166 0.0 0.0 0.00 0.00 0.00 29 1018.1
20260903044629 88 124 0.0 2.0 0.00 0.00 0.00 28 1018.0
20260903044353 88 124 0.0 2.0 0.00 0.00 0.00 28 1018.0
20260903043629 88 27 0.0 1.0 0.00 0.00 0.00 28 1018.0
20260903043129 88 29 1.0 4.0 0.00 0.00 0.00 28 1018.1
20260903042629 89 29 1.0 4.0 0.00 0.00 0.00 28 1018.0
20260903042129 89 15 1.0 4.0 0.00 0.00 0.00 28 1017.9
20260903041859 89 55 2.0 4.0 0.00 0.00 0.00 28 1018.0
20260903041130 89 53 2.0 4.0 0.00 0.00 0.00 28 1018.0
20260903040630 89 15 1.0 4.0 0.00 0.00 0.00 27 1018.0
20260903040129 89 19 1.0 3.0 0.00 0.00 0.00 27 1018.0
20260903035630 89 319 1.0 6.0 0.00 0.00 0.00 27 1017.9
20260903035129 89 328 2.0 6.0 0.00 0.00 0.00 27 1017.8
20260903034632 89 323 2.0 4.0 0.00 0.00 0.00 27 1017.9
20260903034129 89 300 2.0 4.0 0.00 0.00 0.00 27 1017.8
20260903033629 90 322 2.0 4.0 0.00 0.00 0.00 27 1017.7
20260903033130 90 294 2.0 4.0 0.00 0.00 0.00 27 1017.7
20260903032629 90 318 2.0 6.0 0.00 0.00 0.00 27 1017.8
20260903032357 90 294 1.0 6.0 0.00 0.00 0.00 27 1017.8
20260903031629 89 311 0.0 3.0 0.00 0.00 0.00 27 1017.7
20260903031349 90 255 0.0 3.0 0.00 0.00 0.00 27 1017.6
20260903030846 90 240 0.0 3.0 0.00 0.00 0.00 27 1017.6
20260903030350 90 296 0.0 3.0 0.00 0.00 0.00 27 1017.3
20260903030118 90 286 0.0 3.0 0.00 0.00 0.00 27 1017.3
20260903025351 90 270 1.0 3.0 0.00 0.00 0.00 27 1017.2
20260903024629 90 246 1.0 3.0 0.00 0.00 0.00 26 1017.2
20260903024130 90 294 1.0 3.0 0.00 0.00 0.00 26 1017.0
20260903024120 91 279 1.0 4.0 0.00 0.00 0.00 26 1017.0
20260903023353 91 276 2.0 4.0 0.00 0.00 0.00 26 1016.9
20260903022629 91 271 1.0 4.0 0.00 0.00 0.00 26 1016.9
20260903022132 91 286 1.0 4.0 0.00 0.00 0.00 26 1016.8
20260903021629 91 294 2.0 4.0 0.00 0.00 0.00 26 1016.9
20260903021129 91 285 1.0 4.0 0.00 0.00 0.00 26 1016.8
20260903020629 91 272 2.0 6.0 0.00 0.00 0.00 26 1016.8
20260903020127 92 263 3.0 7.0 0.00 0.00 0.00 26 1016.8
20260903015621 92 284 3.0 7.0 0.00 0.00 0.00 26 1016.8
20260903015115 92 304 3.0 8.0 0.00 0.00 0.00 25 1016.7
20260903014611 92 296 4.0 10.0 0.00 0.00 0.00 25 1016.7
20260903014111 92 291 3.0 10.0 0.00 0.00 0.00 25 1016.7
20260903013612 92 281 2.0 7.0 0.00 0.00 0.00 25 1016.5
20260903013333 92 314 3.0 8.0 0.00 0.00 0.00 25 1016.4
20260903012610 92 301 4.0 9.0 0.00 0.00 0.00 25 1016.4
20260903012112 93 282 4.0 9.0 0.00 0.00 0.00 24 1016.4
20260903011610 93 304 3.0 9.0 0.00 0.00 0.00 24 1016.3
20260903011111 94 261 3.0 8.0 0.00 0.00 0.00 23 1016.4
20260903010611 94 250 3.0 8.0 0.00 0.00 0.00 23 1016.3
20260903010111 94 281 2.0 8.0 0.00 0.00 0.00 22 1016.2
20260903005610 94 312 2.0 8.0 0.00 0.00 0.00 22 1016.2
20260903005112 94 340 3.0 9.0 0.00 0.00 0.00 22 1016.4
20260903004839 95 288 4.0 9.0 0.00 0.00 0.00 22 1016.4
20260903004111 95 355 4.0 8.0 0.00 0.00 0.00 21 1016.3
20260903003611 95 355 4.0 10.0 0.00 0.00 0.00 21 1016.3
20260903003108 96 325 5.0 12.0 0.00 0.00 0.00 21 1016.4
20260903002607 96 309 6.0 12.0 0.00 0.00 0.00 21 1016.3
20260903002106 96 319 6.0 12.0 0.00 0.00 0.00 21 1016.3
20260903001607 96 328 4.0 12.0 0.00 0.00 0.00 20 1016.3
20260903001107 96 300 4.0 10.0 0.00 0.00 0.00 20 1016.4
20260903000609 96 282 4.0 10.0 0.00 0.00 0.00 20 1016.2
20260903000527 97 271 4.0 11.0 0.00 0.00 0.00 20 1016.3
20260903000522 96 299 5.0 11.0 0.00 0.00 0.00 20 1016.4
20260902235106 96 231 5.0 11.0 0.00 0.00 0.00 20 1016.2
20260902234607 96 285 5.0 9.0 0.00 0.00 0.00 20 1016.3
20260902234107 97 338 4.0 9.0 0.00 0.00 0.00 20 1016.4
20260902233607 97 312 5.0 13.0 0.00 0.00 0.00 20 1016.5
20260902233107 97 251 5.0 13.0 0.00 0.00 0.00 20 1016.4
20260902232606 97 218 5.0 12.0 0.00 0.00 0.00 20 1016.4
20260902232330 97 280 6.0 12.0 0.00 0.00 0.00 20 1016.7
20260902231826 97 271 5.0 12.0 0.00 0.00 0.00 20 1016.7
20260902231107 97 285 4.0 10.0 0.00 0.00 0.00 20 1016.5
20260902230607 97 195 4.0 10.0 0.00 0.00 0.00 21 1016.7
20260902230326 96 244 6.0 12.0 0.00 0.00 0.00 21 1016.8
20260902225606 96 310 6.0 12.0 0.00 0.00 0.00 21 1016.9
20260902225106 96 46 4.0 9.0 0.00 0.00 0.00 21 1016.9
20260902224605 97 333 3.0 8.0 0.00 0.00 0.00 21 1016.9
20260902224105 97 36 4.0 10.0 0.00 0.00 0.00 21 1017.0
20260902223604 96 311 5.0 10.0 0.00 0.00 0.00 22 1017.1
20260902223101 96 316 5.0 10.0 0.00 0.00 0.00 21 1017.1
20260902222603 96 338 6.0 10.0 0.00 0.00 0.00 22 1017.1
20260902222103 96 217 6.0 12.0 0.00 0.00 0.00 22 1017.2
20260902221603 96 242 6.0 13.0 0.00 0.00 0.00 22 1017.2
20260902221103 97 263 5.0 13.0 0.00 0.00 0.00 22 1017.3
20260902220827 98 242 4.0 13.0 0.00 0.00 0.00 22 1017.3
20260902215602 96 229 5.0 12.0 0.00 0.00 0.00 22 1017.6
20260902215101 96 288 5.0 12.0 0.00 0.00 0.00 22 1017.4
20260902214602 96 225 5.0 11.0 0.00 0.00 0.00 23 1017.4
20260902214101 96 121 5.0 10.0 0.00 0.00 0.00 22 1017.6
20260902213602 96 112 6.0 10.0 0.00 0.00 0.00 22 1017.7
20260902213101 96 242 6.0 12.0 0.00 0.00 0.00 23 1017.7
20260902212601 96 250 6.0 16.0 0.00 0.00 0.00 23 1017.8
20260902212100 96 198 7.0 16.0 0.00 0.00 0.00 23 1017.9
20260902212048 96 236 5.0 13.0 0.00 0.00 0.00 23 1017.9
20260902211101 96 180 2.0 9.0 0.00 0.00 0.00 24 1018.0
20260902210600 95 280 2.0 7.0 0.00 0.00 0.00 24 1018.1
20260902210100 95 345 4.0 11.0 0.00 0.00 0.00 24 1018.1
20260902205600 95 239 6.0 15.0 0.00 0.00 0.00 24 1018.2
20260902205101 96 255 7.0 15.0 0.00 0.00 0.00 24 1018.3
20260902204600 96 254 7.0 14.0 0.00 0.00 0.00 24 1018.4
20260902204053 96 246 6.0 14.0 0.00 0.00 0.00 24 1018.4
20260902203546 96 271 5.0 10.0 0.00 0.00 0.00 24 1018.6
20260902203040 95 147 5.0 13.0 0.00 0.00 0.00 25 1018.7
20260902202535 95 223 7.0 13.0 0.00 0.00 0.00 25 1018.7
20260902202030 95 166 6.0 13.0 0.00 0.00 0.00 25 1018.7
20260902201531 94 236 3.0 9.0 0.00 0.00 0.00 26 1018.9
20260902201031 94 74 2.0 7.0 0.00 0.00 0.00 26 1019.0
20260902200531 94 312 4.0 12.0 0.00 0.00 0.00 26 1019.1
20260902200030 94 213 6.0 12.0 0.00 0.00 0.00 26 1019.2
20260902195530 94 254 6.0 16.0 0.00 0.00 0.00 25 1019.3
20260902195253 94 289 7.0 16.0 0.00 0.00 0.00 25 1019.3
20260902194529 93 215 7.0 13.0 0.00 0.00 0.00 26 1019.5
20260902194030 94 251 6.0 12.0 0.00 0.00 0.00 26 1019.6
20260902193530 93 225 5.0 12.0 0.00 0.00 0.00 26 1019.6
20260902193030 93 134 6.0 14.0 0.00 0.00 0.00 26 1019.7
20260902192530 93 265 6.0 14.0 0.00 0.00 0.00 26 1019.8
20260902192030 93 245 5.0 11.0 0.00 0.00 0.00 26 1019.8
20260902191530 94 284 7.0 13.0 0.00 0.00 0.00 25 1019.9
20260902191031 93 283 7.0 13.0 0.00 0.00 0.00 26 1019.9
20260902190530 93 234 6.0 13.0 0.00 0.00 0.00 27 1019.9
20260902190030 93 244 7.0 12.0 0.00 0.00 0.00 27 1020.0
20260902185530 92 242 8.0 15.0 0.00 0.00 0.00 27 1020.2
20260902185030 92 241 9.0 15.0 0.00 0.00 0.00 27 1020.2
20260902184530 93 253 7.0 14.0 0.00 0.00 0.00 27 1020.2
20260902184029 93 246 5.0 12.0 0.00 0.00 0.00 27 1020.4
20260902183530 92 260 5.0 12.0 0.00 0.00 0.00 28 1020.5
20260902183029 92 239 6.0 13.0 0.00 0.00 0.00 27 1020.6
20260902182530 92 256 6.0 13.0 0.00 0.00 0.00 27 1020.7
20260902182521 92 296 5.0 11.0 0.00 0.00 0.00 27 1020.7
20260902181529 92 221 5.0 11.0 0.00 0.00 0.00 28 1020.7
20260902181030 92 268 4.0 11.0 0.00 0.00 0.00 28 1020.8
20260902180530 92 149 2.0 8.0 0.00 0.00 0.00 27 1020.8
20260902180030 91 321 2.0 5.0 0.00 0.00 0.00 27 1020.8
20260902175529 91 324 2.0 5.0 0.00 0.00 0.00 28 1020.9
20260902175029 90 307 2.0 5.0 0.00 0.00 0.00 28 1021.0
20260902174743 90 213 5.0 10.0 0.00 0.00 0.00 28 1021.0
20260902174734 90 12 4.0 10.0 0.00 0.00 0.00 28 1021.0
20260902173530 91 200 4.0 10.0 0.00 0.00 0.00 28 1021.0
20260902173028 90 144 5.0 11.0 0.00 0.00 0.00 28 1021.0
20260902172740 90 185 5.0 11.0 0.00 0.00 0.00 28 1021.0
20260902172016 91 182 4.0 10.0 0.00 0.00 0.00 28 1021.0
20260902171515 91 211 3.0 10.0 0.00 0.00 0.00 28 1021.3
20260902171222 90 273 1.0 4.0 0.00 0.00 0.00 29 1021.4
20260902171215 91 236 2.0 6.0 0.00 0.00 0.00 28 1021.4
20260902170017 90 162 1.0 4.0 0.00 0.00 0.00 30 1021.4
20260902165516 89 76 1.0 4.0 0.00 0.00 0.00 30 1021.4
20260902165016 89 81 2.0 6.0 0.00 0.00 0.00 31 1021.4
20260902164516 88 28 2.0 6.0 0.00 0.00 0.00 31 1021.3
20260902164014 88 61 1.0 4.0 0.00 0.00 0.00 32 1021.5
20260902163514 88 236 2.0 6.0 0.00 0.00 0.00 32 1021.6
20260902163241 88 65 1.0 6.0 0.00 0.00 0.00 33 1021.6
20260902162514 87 343 1.0 4.0 0.00 0.00 0.00 32 1021.5
20260902162012 87 277 2.0 5.0 0.00 0.00 0.00 32 1021.6
20260902161510 87 224 2.0 5.0 0.00 0.00 0.00 32 1021.6
20260902161010 87 273 2.0 5.0 0.00 0.00 0.00 34 1021.6
20260902160736 87 270 1.0 4.0 0.00 0.00 0.00 35 1021.6
20260902160232 86 275 1.0 4.0 0.00 0.00 0.00 36 1021.6
20260902155506 86 230 1.0 4.0 0.00 0.00 0.00 36 1021.5
20260902155005 86 126 2.0 5.0 0.00 0.00 0.00 36 1021.4
20260902154734 85 127 1.0 5.0 0.00 0.00 0.00 36 1021.5
20260902154004 85 213 1.0 4.0 0.00 0.00 0.00 37 1021.4
20260902153504 85 254 1.0 4.0 0.00 0.00 0.00 39 1021.4
20260902153001 85 284 1.0 3.0 0.00 0.00 0.00 39 1021.4
20260902152502 85 185 0.0 2.0 0.00 0.00 0.00 39 1021.4
20260902152002 84 186 1.0 4.0 0.00 0.00 0.00 39 1021.4
20260902151502 84 132 1.0 4.0 0.00 0.00 0.00 39 1021.4
20260902151002 83 169 1.0 5.0 0.00 0.00 0.00 41 1021.4
20260902150723 83 170 1.0 5.0 0.00 0.00 0.00 41 1021.4
20260902150002 82 123 0.0 3.0 0.00 0.00 0.00 42 1021.4
20260902145502 81 149 1.0 2.0 0.00 0.00 0.00 43 1021.4
20260902145002 80 144 1.0 3.0 0.00 0.00 0.00 43 1021.4
20260902144729 80 203 1.0 4.0 0.00 0.00 0.00 44 1021.4
20260902144002 80 153 1.0 4.0 0.00 0.00 0.00 45 1021.3
20260902143502 79 150 2.0 6.0 0.00 0.00 0.00 45 1021.3
20260902143001 79 113 3.0 6.0 0.00 0.00 0.00 46 1021.3
20260902142502 79 105 3.0 7.0 0.00 0.00 0.00 46 1021.3
20260902142002 78 122 3.0 7.0 0.00 0.00 0.00 46 1021.3
20260902141502 78 144 2.0 4.0 0.00 0.00 0.00 47 1021.1
20260902141000 77 134 1.0 4.0 0.00 0.00 0.00 46 1021.1
20260902140501 77 123 1.0 4.0 0.00 0.00 0.00 46 1021.1
20260902140004 76 112 1.0 4.0 0.00 0.00 0.00 46 1021.1
20260902135501 76 121 1.0 3.0 0.00 0.00 0.00 45 1021.1
20260902135001 75 122 1.0 4.0 0.00 0.00 0.00 46 1021.0
20260902134502 75 134 2.0 4.0 0.00 0.00 0.00 45 1020.9
20260902134002 75 80 1.0 4.0 0.00 0.00 0.00 45 1021.0
20260902133501 75 104 1.0 3.0 0.00 0.00 0.00 46 1020.8
20260902133002 74 105 1.0 3.0 0.00 0.00 0.00 46 1020.7
20260902132723 74 52 1.0 3.0 0.00 0.00 0.00 47 1020.7
20260902132223 73 16 0.0 2.0 0.00 0.00 0.00 47 1020.6
20260902131501 73 28 0.0 1.0 0.00 0.00 0.00 48 1020.5
20260902131001 73 54 0.0 1.0 0.00 0.00 0.00 48 1020.5
20260902130502 72 54 0.0 2.0 0.00 0.00 0.00 49 1020.5
20260902130216 72 54 1.0 3.0 0.00 0.00 0.00 48 1020.5
20260902130204 72 54 1.0 3.0 0.00 0.00 0.00 48 1020.5
20260902125001 72 54 1.0 3.0 0.00 0.00 0.00 48 1020.2
20260902124724 72 53 0.0 3.0 0.00 0.00 0.00 49 1020.2
20260902124001 72 44 0.0 1.0 0.00 0.00 0.00 48 1020.1
20260902123724 73 42 0.0 2.0 0.00 0.00 0.00 48 1020.1
20260902123001 73 65 1.0 4.0 0.00 0.00 0.00 48 1020.0
20260902122501 73 65 1.0 4.0 0.00 0.00 0.00 49 1020.0
20260902122223 73 253 0.0 0.0 0.00 0.00 0.00 49 1019.9
20260902121502 73 253 0.0 0.0 0.00 0.00 0.00 49 1019.9
20260902121001 73 253 0.0 0.0 0.00 0.00 0.00 49 1019.9
20260902120501 73 253 0.0 0.0 0.00 0.00 0.00 48 1020.0
20260902120001 73 253 0.0 3.0 0.00 0.00 0.00 48 1020.0
20260902115502 73 255 0.0 3.0 0.00 0.00 0.00 48 1019.9
20260902115001 72 262 0.0 4.0 0.00 0.00 0.00 48 1020.0
20260902114501 72 169 0.0 4.0 0.00 0.00 0.00 48 1019.8
20260902114000 72 198 0.0 0.0 0.00 0.00 0.00 48 1019.8
20260902113501 72 290 0.0 0.0 0.00 0.00 0.00 48 1019.9
20260902113443 72 290 0.0 2.0 0.00 0.00 0.00 47 1019.8
20260902112501 72 290 0.0 3.0 0.00 0.00 0.00 47 1019.8
20260902112001 73 290 0.0 3.0 0.00 0.00 0.00 47 1019.9
20260902111501 73 94 0.0 2.0 0.00 0.00 0.00 47 1019.7
20260902111001 73 105 1.0 4.0 0.00 0.00 0.00 46 1019.7
20260902110502 73 105 2.0 4.0 0.00 0.00 0.00 46 1019.8
20260902110002 74 96 2.0 4.0 0.00 0.00 0.00 46 1019.8
20260902105500 74 94 1.0 3.0 0.00 0.00 0.00 45 1019.7
20260902105001 74 65 0.0 3.0 0.00 0.00 0.00 45 1019.7
20260902104501 75 44 0.0 3.0 0.00 0.00 0.00 45 1019.6
20260902103955 75 51 1.0 3.0 0.00 0.00 0.00 44 1019.6
20260902103449 75 25 2.0 5.0 0.00 0.00 0.00 44 1019.7
20260902102949 75 19 4.0 8.0 0.00 0.00 0.00 44 1019.7
20260902102449 76 46 3.0 8.0 0.00 0.00 0.00 43 1019.7
20260902102212 76 49 1.0 5.0 0.00 0.00 0.00 44 1019.7
20260902101450 76 48 0.0 1.0 0.00 0.00 0.00 44 1019.7
20260902100950 76 37 0.0 1.0 0.00 0.00 0.00 44 1019.6
20260902100447 76 70 1.0 3.0 0.00 0.00 0.00 43 1019.6
20260902095946 76 70 1.0 3.0 0.00 0.00 0.00 43 1019.6
20260902095446 76 56 1.0 3.0 0.00 0.00 0.00 43 1019.6
20260902094946 76 251 0.0 3.0 0.00 0.00 0.00 43 1019.6
20260902094446 77 251 1.0 3.0 0.00 0.00 0.00 43 1019.6
20260902093946 77 238 1.0 3.0 0.00 0.00 0.00 43 1019.5
20260902093711 77 33 1.0 3.0 0.00 0.00 0.00 43 1019.5
20260902092942 77 13 1.0 3.0 0.00 0.00 0.00 43 1019.5
20260902092440 77 15 1.0 3.0 0.00 0.00 0.00 43 1019.5
20260902091937 77 11 0.0 2.0 0.00 0.00 0.00 43 1019.5
20260902091438 77 11 0.0 0.0 0.00 0.00 0.00 43 1019.6
20260902091400 77 11 0.0 0.0 0.00 0.00 0.00 42 1019.8
20260902091356 77 11 0.0 0.0 0.00 0.00 0.00 42 1019.6
20260902085932 77 11 0.0 0.0 0.00 0.00 0.00 42 1019.8
20260902085432 77 11 0.0 0.0 0.00 0.00 0.00 42 1019.7
20260902085150 77 11 0.0 0.0 0.00 0.00 0.00 42 1019.6
20260902084431 77 355 0.0 0.0 0.00 0.00 0.00 41 1019.6
20260902083932 78 355 0.0 0.0 0.00 0.00 0.00 41 1019.6
20260902083652 78 245 0.0 0.0 0.00 0.00 0.00 41 1019.6
20260902082933 78 348 0.0 0.0 0.00 0.00 0.00 41 1019.6
20260902082430 78 348 0.0 0.0 0.00 0.00 0.00 41 1019.7
20260902081929 78 348 0.0 0.0 0.00 0.00 0.00 41 1019.6
20260902081430 78 348 0.0 0.0 0.00 0.00 0.00 40 1019.6
20260902080930 79 346 0.0 0.0 0.00 0.00 0.00 40 1019.7
20260902080429 79 25 0.0 0.0 0.00 0.00 0.00 40 1019.6
20260902075930 79 25 0.0 0.0 0.00 0.00 0.00 39 1019.6
20260902075429 79 25 0.0 1.0 0.00 0.00 0.00 39 1019.7
20260902074930 80 25 0.0 3.0 0.00 0.00 0.00 39 1019.9
20260902074430 80 25 0.0 3.0 0.00 0.00 0.00 38 1020.0
20260902073930 80 355 0.0 0.0 0.00 0.00 0.00 39 1019.9
20260902073429 80 355 0.0 1.0 0.00 0.00 0.00 38 1019.9
20260902072930 80 355 1.0 2.0 0.00 0.00 0.00 38 1019.9
20260902072429 80 355 1.0 3.0 0.00 0.00 0.00 38 1019.9
20260902071930 80 96 2.0 4.0 0.00 0.00 0.00 38 1019.9
20260902071430 80 63 2.0 4.0 0.00 0.00 0.00 38 1019.9
20260902070930 80 49 2.0 4.0 0.00 0.00 0.00 38 1019.9
20260902070430 80 38 2.0 4.0 0.00 0.00 0.00 37 1019.9
20260902065928 80 61 2.0 4.0 0.00 0.00 0.00 37 1019.7
20260902065430 80 58 1.0 3.0 0.00 0.00 0.00 37 1019.7
20260902064930 80 348 2.0 4.0 0.00 0.00 0.00 37 1019.8
20260902064429 80 345 1.0 4.0 0.00 0.00 0.00 36 1019.7
20260902063928 80 340 0.0 2.0 0.00 0.00 0.00 36 1019.8
20260902063652 81 94 0.0 3.0 0.00 0.00 0.00 36 1019.8
20260902062929 81 94 1.0 6.0 0.00 0.00 0.00 36 1019.8
20260902062429 81 93 2.0 6.0 0.00 0.00 0.00 35 1019.8
20260902061930 82 80 2.0 4.0 0.00 0.00 0.00 35 1019.9
20260902061428 82 90 1.0 4.0 0.00 0.00 0.00 35 1019.8
20260902060929 82 101 1.0 6.0 0.00 0.00 0.00 35 1019.8
20260902060429 82 186 0.0 6.0 0.00 0.00 0.00 35 1019.8
20260902060151 82 61 1.0 4.0 0.00 0.00 0.00 35 1019.8
20260902055428 82 61 2.0 5.0 0.00 0.00 0.00 34 1019.8
20260902054930 83 57 2.0 6.0 0.00 0.00 0.00 34 1019.8
20260902054430 83 42 1.0 6.0 0.00 0.00 0.00 33 1019.8
20260902054156 84 123 3.0 7.0 0.00 0.00 0.00 33 1019.7